Location: Condor
(52.3263°N, 114.5541°W)
Time: 17:44:24
(UTC+00:00)

Envisat - Visible Passes

Search period start: 10 June 2023 00:00
Search period end: 20 June 2023 00:00
Orbit: 763 x 765 km, 98.2° (Epoch: 10 June)

Date Brightness Start Highest point End Pass type
(mag) Time Alt. Az. Time Alt. Az. Time Alt. Az.
12 Jun 5.5 10:12:30 10° NE 10:15:37 16° E 10:18:43 10° SE visible
15 Jun 5.7 10:00:45 10° ENE 10:02:59 13° E 10:05:13 10° ESE visible
17 Jun 5.4 10:24:18 10° NE 10:28:03 20° E 10:31:46 10° SE visible
